Location: Burbank
(38.7788°N, 114.0429°W)
Time: 01:54:08
(UTC+00:00)

A-11 Canister half - Visible Passes

Search period start: 14 May 2026 00:00
Search period end: 24 May 2026 00:00
Orbit: 1523 x 1685 km, 47.3° (Epoch: 13 May)

Date Brightness Start Highest point End Pass type
(mag) Time Alt. Az. Time Alt. Az. Time Alt. Az.
14 May 9.7 04:25:11 10° WNW 04:34:46 54° N 04:44:37 10° E visible
14 May 9.0 06:30:44 10° WNW 06:40:47 88° NNE 06:44:05 50° ESE visible
14 May 10.0 08:36:30 10° WNW 08:42:18 30° W 08:42:18 30° W visible
15 May 9.7 04:03:16 10° WNW 04:12:49 53° N 04:22:39 10° E visible
15 May 9.0 06:08:51 10° WNW 06:18:53 85° NNE 06:22:47 45° ESE visible
15 May 9.8 08:14:33 10° WNW 08:21:00 33° WSW 08:21:00 33° WSW visible
16 May 9.7 03:41:22 10° WNW 03:50:52 53° N 04:00:39 10° E visible
16 May 9.1 05:46:59 10° WNW 05:56:59 83° NNE 06:01:33 39° ESE visible
16 May 9.7 07:52:35 10° WNW 07:59:46 36° WSW 07:59:46 36° WSW visible
17 May 9.8 03:19:27 10° WNW 03:28:55 53° N 03:38:40 10° E visible
17 May 9.1 05:25:07 10° WNW 05:35:05 80° NNE 05:40:22 34° ESE visible
17 May 9.6 07:30:39 10° WNW 07:38:37 40° WSW 07:38:37 40° WSW visible
18 May 9.8 02:57:33 10° WNW 03:06:58 52° N 03:16:42 10° ENE visible
18 May 9.1 05:03:15 10° WNW 05:13:10 78° NNE 05:19:16 28° ESE visible
18 May 9.5 07:08:43 10° WNW 07:17:31 43° SW 07:17:31 43° SW visible
19 May 9.2 04:41:24 10° WNW 04:51:16 76° NNE 04:58:13 24° ESE visible
19 May 9.4 06:46:48 10° WNW 06:56:05 46° SW 06:56:28 46° SW visible
20 May 9.2 04:19:31 10° WNW 04:29:21 73° NNE 04:37:13 19° ESE visible
20 May 9.3 06:24:53 10° WNW 06:34:15 48° SW 06:35:28 46° SSW visible
21 May 9.3 03:57:39 10° WNW 04:07:26 71° NNE 04:16:16 15° ESE visible
21 May 9.3 06:02:58 10° WNW 06:12:24 51° SW 06:14:31 45° S visible
22 May 9.3 03:35:47 10° WNW 03:45:32 69° NNE 03:55:20 11° ESE visible
22 May 9.3 05:41:05 10° WNW 05:50:33 53° SW 05:53:36 41° S visible
22 May 10.8 07:50:09 10° W 07:51:52 12° WSW 07:51:52 12° WSW visible
23 May 9.4 03:13:55 10° WNW 03:23:37 68° NNE 03:33:37 10° ESE visible
23 May 9.3 05:19:11 10° WNW 05:28:43 56° SW 05:32:44 37° SSE visible
23 May 10.7 07:27:40 10° W 07:31:00 14° WSW 07:31:00 14° WSW visible
